User: anonymous   Login
Location: Byszew
(52.1813°N, 19.2693°E)
Time: 11:13:57
(UTC+00:00)
Language:

Cosmos 2360 Rocket - Orbit

View from above orbital plane
View from above orbital plane
View from above satellite
View from above satellite

Ground track
Ground track

The orbit data is extracted from the following two-line orbital elements,

1 25407U 98045B   21131.86760751 -.00000203  00000-0 -78930-4 0  9990
2 25407  71.0110 287.3850 0008337 208.5333 151.5334 14.15839621177566
Epoch (UTC): 11 May 2021 20:49:21
Eccentricity: 0.0008337
inclination: 71.0110°
perigee height: 833 km
apogee height: 845 km
right ascension of ascending node: 287.3850°
argument of perigee: 208.5333°
revolutions per day: 14.15839621
mean anomaly at epoch: 151.5334°
orbit number at epoch: 17756

The dashed part of the orbit path shows where the satellite is in the earth's shadow,  

DLR